Flag for Mexico Weather past 2 weeks in Playa del Carmen, Quintana Roo, Mexico

Now
77 °F

Passing clouds.


Feels Like: 78 °F
Forecast: 80 / 90 °F
Wind: 5 mph from East

Location: Cozumel Civ / Mil

Current Time: Jul 26, 2014 at 12:08:52 AM

Latest Report: Jul 25, 2014 at 10:43 PM


Visibility: 7 mi

Pressure: 30.06 "Hg

Humidity: 94%

Dew point: 75 °F

Location of Playa del CarmenLocation

Historic Weather in Playa del Carmen — Graph

°F

Playa del Carmen temperature yesterday

Maximum temperature yesterday: 86 °F (at 10:44 AM)
Minimum temperature yesterday: 72 °F (at 2:44 AM)
Average temperature yesterday: 79 °F

Past Weeks' High & Low Weather Summary

 TemperatureHumidityPressure
High90 °F (Jul 19, 2:42 PM)100% (Jul 10, 10:57 PM)30.09 "Hg (Jul 10, 10:57 PM)
Low70 °F (Jul 12, 5:44 AM)49% (Jul 23, 2:44 PM)29.96 "Hg (Jul 21, 5:46 AM)
Average80 °F87%30.02 "Hg
* Reported Jul 10 10:57 PM — Jul 25 10:43 PM, Playa del Carmen, Weather by CustomWeather, © 2014

Note: Actual official high and low records may vary slightly from our data, if they occured in-between our weather recording intervals... More about our weather records

Advertising

Playa del Carmen weather history for previous 24 hours

 ConditionsComfort  
Time TempWeatherWind HumidityBarometerVisibility
10:43 PM
Jul 25
77 °FPassing clouds.5 mph94%30.06 "Hg7 mi
9:46 PM77 °FPassing clouds.5 mph94%30.07 "Hg7 mi
8:41 PM77 °FPassing clouds.3 mph94%30.03 "Hg7 mi
7:45 PM79 °FScattered clouds.5 mph89%30.03 "Hg7 mi
6:49 PM81 °FScattered clouds.6 mph84%29.98 "Hg8 mi
5:41 PM84 °FScattered clouds.14 mph79%29.99 "Hg8 mi
4:44 PM84 °FScattered clouds.14 mph79%29.99 "Hg8 mi
3:40 PM86 °FScattered clouds.14 mph70%30.02 "Hg8 mi
2:41 PM86 °FScattered clouds.13 mph70%30.01 "Hg8 mi
1:40 PM86 °FScattered clouds.15 mph75%30.04 "Hg8 mi
12:42 PM86 °FScattered clouds.14 mph75%30.03 "Hg8 mi
11:41 AM86 °FScattered clouds.10 mph75%30.05 "Hg7 mi
10:44 AM86 °FScattered clouds.9 mph75%30.06 "Hg7 mi
9:46 AM84 °FScattered clouds.8 mph79%30.09 "Hg7 mi
8:43 AM82 °FScattered clouds.7 mph84%30.05 "Hg7 mi
7:44 AM77 °FPassing clouds.No wind100%30.04 "Hg7 mi
6:49 AM72 °FPassing clouds.No wind100%30.01 "Hg7 mi
5:40 AM72 °FPassing clouds.No wind100%30.02 "Hg7 mi
4:41 AM72 °FPassing clouds.No wind100%30.01 "Hg7 mi
3:40 AM72 °FPartly cloudy.No wind100%30.04 "Hg7 mi
2:44 AM72 °FPartly cloudy.No wind100%30.02 "Hg7 mi
1:40 AM73 °FPartly cloudy.No wind100%30.03 "Hg7 mi
12:50 AM73 °FPassing clouds.No wind100%30.04 "Hg7 mi
Weather by CustomWeather, © 2014

See weather overviewHow to use our weather pages